Location: Christian Reformed Church
(43.0975°N, 93.8113°W)
Time: 12:36:48
(UTC+00:00)

Okean 1-7 Rocket - Pass Details

Date: 14 March 2026
Orbit: 609 x 643 km, 82.5° (Epoch: 14 April)

Event Time Altitude Azimuth Distance (km) Brightness Sun altitude
Rises 01:12:01 0° 196° (SSW) 2,936 7.2 -10.4°
Reaches altitude 10° 01:14:17 10° 200° (SSW) 2,033 6.4 -10.8°
Maximum altitude 01:18:44 59° 280° (W) 745 4.3 -11.6°
Drops below altitude 10° 01:23:14 10° 1° (N) 2,046 6.3 -12.4°
Sets 01:25:32 0° 5° (N) 2,957 7.1 -12.9°
